Time,TemperatureF,DewpointF,PressureIn,WindDirection,WindDirectionDegrees,WindSpeedMPH,WindSpeedGustMPH,Humidity,HourlyPrecipIn,Conditions,Clouds,dailyrainin,SolarRadiationWatts/m^2,SoftwareType,DateUTC
2013-02-15 00:01:00,52.0,51.0,-100.00,East,87,3.0,15.0,96,0.00,,,0.00,0.000000,,2013-02-15 10:01:00,
2013-02-15 00:11:00,52.0,51.0,-100.00,East,87,3.0,15.0,96,0.00,,,0.00,0.000000,,2013-02-15 10:11:00,
2013-02-15 00:21:00,52.0,51.0,-100.00,East,87,3.0,15.0,96,0.00,,,0.00,0.000000,,2013-02-15 10:21:00,
2013-02-15 00:22:00,52.0,51.0,-100.00,East,89,3.0,14.0,97,0.00,,,0.00,0.000000,,2013-02-15 10:22:00,
2013-02-15 00:42:00,52.0,51.0,-100.00,East,89,3.0,14.0,97,0.00,,,0.00,0.000000,,2013-02-15 10:42:00,
2013-02-15 00:52:00,52.0,51.0,-100.00,East,89,3.0,14.0,97,0.00,,,0.00,0.000000,,2013-02-15 10:52:00,
2013-02-15 01:01:00,52.0,51.0,-100.00,East,89,3.0,14.0,97,0.00,,,0.00,0.000000,,2013-02-15 11:01:00,
2013-02-15 01:11:00,52.0,51.0,-100.00,East,89,3.0,14.0,97,0.00,,,0.00,0.000000,,2013-02-15 11:11:00,
2013-02-15 01:42:00,52.0,51.0,-100.00,East,90,3.0,16.0,95,0.00,,,0.00,0.000000,,2013-02-15 11:42:00,
2013-02-15 01:52:00,52.0,51.0,-100.00,East,90,3.0,16.0,95,0.00,,,0.00,0.000000,,2013-02-15 11:52:00,
2013-02-15 02:01:00,52.0,51.0,-100.00,East,90,3.0,16.0,95,0.00,,,0.00,0.000000,,2013-02-15 12:01:00,
2013-02-15 02:11:00,52.0,51.0,-100.00,East,90,3.0,16.0,95,0.00,,,0.00,0.000000,,2013-02-15 12:11:00,
2013-02-15 02:21:00,52.0,51.0,-100.00,East,90,3.0,16.0,95,0.00,,,0.00,0.000000,,2013-02-15 12:21:00,
2013-02-15 02:42:00,51.0,50.0,-100.00,East,88,3.0,15.0,96,0.00,,,0.00,0.000000,,2013-02-15 12:42:00,
2013-02-15 02:52:00,51.0,50.0,-100.00,East,88,3.0,15.0,96,0.00,,,0.00,0.000000,,2013-02-15 12:52:00,
2013-02-15 03:02:00,51.0,50.0,-100.00,East,88,3.0,15.0,96,0.00,,,0.00,0.000000,,2013-02-15 13:02:00,
2013-02-15 03:11:00,51.0,50.0,-100.00,East,88,3.0,15.0,96,0.00,,,0.00,0.000000,,2013-02-15 13:11:00,
2013-02-15 03:21:00,51.0,50.0,-100.00,East,88,3.0,15.0,96,0.00,,,0.00,0.000000,,2013-02-15 13:21:00,
2013-02-15 03:42:00,52.0,51.0,-100.00,East,85,3.0,17.0,97,0.00,,,0.00,0.000000,,2013-02-15 13:42:00,
2013-02-15 03:52:00,52.0,51.0,-100.00,East,85,3.0,17.0,97,0.00,,,0.00,0.000000,,2013-02-15 13:52:00,
2013-02-15 04:01:00,52.0,51.0,-100.00,East,85,3.0,17.0,97,0.00,,,0.00,0.000000,,2013-02-15 14:01:00,
2013-02-15 04:11:00,52.0,51.0,-100.00,East,85,3.0,17.0,97,0.00,,,0.00,0.000000,,2013-02-15 14:11:00,
2013-02-15 04:21:00,52.0,51.0,-100.00,East,85,3.0,17.0,97,0.00,,,0.00,0.000000,,2013-02-15 14:21:00,
2013-02-15 04:42:00,51.0,50.0,-100.00,East,88,3.0,13.0,95,0.00,,,0.00,0.000000,,2013-02-15 14:42:00,
2013-02-15 04:52:00,51.0,50.0,-100.00,East,88,3.0,13.0,95,0.00,,,0.00,0.000000,,2013-02-15 14:52:00,
2013-02-15 05:01:00,51.0,50.0,-100.00,East,88,3.0,13.0,95,0.00,,,0.00,0.000000,,2013-02-15 15:01:00,
2013-02-15 05:11:00,51.0,50.0,-100.00,East,88,3.0,13.0,95,0.00,,,0.00,0.000000,,2013-02-15 15:11:00,
2013-02-15 05:21:00,51.0,50.0,-100.00,East,88,3.0,13.0,95,0.00,,,0.00,0.000000,,2013-02-15 15:21:00,
2013-02-15 05:42:00,50.0,48.0,-100.00,East,95,4.0,15.0,94,0.00,,,0.00,0.000000,,2013-02-15 15:42:00,
2013-02-15 05:52:00,50.0,48.0,-100.00,East,95,4.0,15.0,94,0.00,,,0.00,0.000000,,2013-02-15 15:52:00,
2013-02-15 06:01:00,50.0,48.0,-100.00,East,95,4.0,15.0,94,0.00,,,0.00,0.000000,,2013-02-15 16:01:00,
2013-02-15 06:11:00,50.0,48.0,-100.00,East,95,4.0,15.0,94,0.00,,,0.00,0.000000,,2013-02-15 16:11:00,
2013-02-15 06:21:00,50.0,48.0,-100.00,East,95,4.0,15.0,94,0.00,,,0.00,0.000000,,2013-02-15 16:21:00,
2013-02-15 06:43:00,51.0,50.0,-100.00,East,89,3.0,11.0,96,0.00,,,0.00,0.000000,,2013-02-15 16:43:00,
2013-02-15 06:52:00,51.0,50.0,-100.00,East,89,3.0,11.0,96,0.00,,,0.00,0.000000,,2013-02-15 16:52:00,
2013-02-15 07:01:00,51.0,50.0,-100.00,East,89,3.0,11.0,96,0.00,,,0.00,0.000000,,2013-02-15 17:01:00,
2013-02-15 07:11:00,51.0,50.0,-100.00,East,89,3.0,11.0,96,0.00,,,0.00,0.000000,,2013-02-15 17:11:00,
2013-02-15 07:21:00,51.0,50.0,-100.00,East,89,3.0,11.0,96,0.00,,,0.00,0.000000,,2013-02-15 17:21:00,
2013-02-15 07:42:00,52.0,51.0,-100.00,East,96,3.0,13.0,97,0.00,,,-99.99,0.000000,,2013-02-15 17:42:00,
2013-02-15 07:52:00,52.0,51.0,-100.00,East,96,3.0,13.0,97,0.00,,,-99.99,0.000000,,2013-02-15 17:52:00,
2013-02-15 08:01:00,52.0,51.0,-100.00,East,96,3.0,13.0,97,0.00,,,-99.99,0.000000,,2013-02-15 18:01:00,
2013-02-15 08:11:00,52.0,51.0,-100.00,East,96,3.0,13.0,97,0.00,,,-99.99,0.000000,,2013-02-15 18:11:00,
2013-02-15 08:21:00,52.0,51.0,-100.00,East,96,3.0,13.0,97,0.00,,,-99.99,0.000000,,2013-02-15 18:21:00,
2013-02-15 08:42:00,51.0,50.0,-100.00,ESE,112,3.0,16.0,96,0.00,,,0.00,11.000000,,2013-02-15 18:42:00,
2013-02-15 08:52:00,51.0,50.0,-100.00,ESE,112,3.0,16.0,96,0.00,,,0.00,11.000000,,2013-02-15 18:52:00,
2013-02-15 09:01:00,51.0,50.0,-100.00,ESE,112,3.0,16.0,96,0.00,,,0.00,11.000000,,2013-02-15 19:01:00,
2013-02-15 09:11:00,51.0,50.0,-100.00,ESE,112,3.0,16.0,96,0.00,,,0.00,11.000000,,2013-02-15 19:11:00,
2013-02-15 09:21:00,51.0,50.0,-100.00,ESE,112,3.0,16.0,96,0.00,,,0.00,11.000000,,2013-02-15 19:21:00,
2013-02-15 09:42:00,52.0,50.0,-100.00,ESE,109,3.0,13.0,93,0.00,,,0.00,62.000000,,2013-02-15 19:42:00,
2013-02-15 09:52:00,52.0,50.0,-100.00,ESE,109,3.0,13.0,93,0.00,,,0.00,62.000000,,2013-02-15 19:52:00,
2013-02-15 10:01:00,52.0,50.0,-100.00,ESE,109,3.0,13.0,93,0.00,,,0.00,62.000000,,2013-02-15 20:01:00,
2013-02-15 10:11:00,52.0,50.0,-100.00,ESE,109,3.0,13.0,93,0.00,,,0.00,62.000000,,2013-02-15 20:11:00,
2013-02-15 10:21:00,52.0,50.0,-100.00,ESE,109,3.0,13.0,93,0.00,,,0.00,62.000000,,2013-02-15 20:21:00,
2013-02-15 10:42:00,53.0,50.0,-100.00,ESE,110,3.0,15.0,91,0.00,,,0.00,155.000000,,2013-02-15 20:42:00,
2013-02-15 10:52:00,53.0,50.0,-100.00,ESE,110,3.0,15.0,91,0.00,,,0.00,155.000000,,2013-02-15 20:52:00,
2013-02-15 11:01:00,53.0,50.0,-100.00,ESE,110,3.0,15.0,91,0.00,,,0.00,155.000000,,2013-02-15 21:01:00,
2013-02-15 11:11:00,53.0,50.0,-100.00,ESE,110,3.0,15.0,91,0.00,,,0.00,155.000000,,2013-02-15 21:11:00,
2013-02-15 11:21:00,53.0,50.0,-100.00,ESE,110,3.0,15.0,91,0.00,,,0.00,155.000000,,2013-02-15 21:21:00,
2013-02-15 11:42:00,55.0,52.0,-100.00,SE,128,3.0,17.0,91,0.00,,,0.00,240.000000,,2013-02-15 21:42:00,
2013-02-15 11:52:00,55.0,52.0,-100.00,SE,128,3.0,17.0,91,0.00,,,0.00,240.000000,,2013-02-15 21:52:00,
2013-02-15 12:02:00,55.0,52.0,-100.00,SE,128,3.0,17.0,91,0.00,,,0.00,240.000000,,2013-02-15 22:02:00,
2013-02-15 12:11:00,55.0,52.0,-100.00,SE,128,3.0,17.0,91,0.00,,,0.00,240.000000,,2013-02-15 22:11:00,
2013-02-15 12:21:00,55.0,52.0,-100.00,SE,128,3.0,17.0,91,0.00,,,0.00,240.000000,,2013-02-15 22:21:00,
2013-02-15 12:42:00,57.0,54.0,-100.00,SSE,152,2.0,12.0,89,0.00,,,0.00,280.000000,,2013-02-15 22:42:00,
2013-02-15 12:52:00,57.0,54.0,-100.00,SSE,152,2.0,12.0,89,0.00,,,0.00,280.000000,,2013-02-15 22:52:00,
2013-02-15 13:02:00,57.0,54.0,-100.00,SSE,152,2.0,12.0,89,0.00,,,0.00,280.000000,,2013-02-15 23:02:00,
2013-02-15 13:11:00,57.0,54.0,-100.00,SSE,152,2.0,12.0,89,0.00,,,0.00,280.000000,,2013-02-15 23:11:00,
2013-02-15 13:21:00,57.0,54.0,-100.00,SSE,152,2.0,12.0,89,0.00,,,0.00,280.000000,,2013-02-15 23:21:00,
2013-02-15 13:42:00,60.0,58.0,-100.00,ESE,103,2.0,10.0,94,0.00,,,0.00,357.000000,,2013-02-15 23:42:00,
2013-02-15 13:52:00,60.0,58.0,-100.00,ESE,103,2.0,10.0,94,0.00,,,0.00,357.000000,,2013-02-15 23:52:00,
2013-02-15 14:02:00,60.0,58.0,-100.00,ESE,103,2.0,10.0,94,0.00,,,0.00,357.000000,,2013-02-16 00:02:00,
2013-02-15 14:11:00,60.0,58.0,-100.00,ESE,103,2.0,10.0,94,0.00,,,0.00,357.000000,,2013-02-16 00:11:00,
2013-02-15 14:21:00,60.0,58.0,-100.00,ESE,103,2.0,10.0,94,0.00,,,0.00,357.000000,,2013-02-16 00:21:00,
2013-02-15 14:42:00,58.0,57.0,-100.00,ESE,108,2.0,8.0,96,0.00,,,0.00,235.000000,,2013-02-16 00:42:00,
2013-02-15 14:52:00,58.0,57.0,-100.00,ESE,108,2.0,8.0,96,0.00,,,0.00,235.000000,,2013-02-16 00:52:00,
2013-02-15 15:02:00,58.0,57.0,-100.00,ESE,108,2.0,8.0,96,0.00,,,0.00,235.000000,,2013-02-16 01:02:00,
2013-02-15 15:11:00,58.0,57.0,-100.00,ESE,108,2.0,8.0,96,0.00,,,0.00,235.000000,,2013-02-16 01:11:00,
2013-02-15 15:21:00,58.0,57.0,-100.00,ESE,108,2.0,8.0,96,0.00,,,0.00,235.000000,,2013-02-16 01:21:00,
2013-02-15 15:42:00,57.0,56.0,-100.00,East,95,2.0,13.0,96,0.00,,,0.00,149.000000,,2013-02-16 01:42:00,
2013-02-15 15:52:00,57.0,56.0,-100.00,East,95,2.0,13.0,96,0.00,,,0.00,149.000000,,2013-02-16 01:52:00,
2013-02-15 16:01:00,57.0,56.0,-100.00,East,95,2.0,13.0,96,0.00,,,0.00,149.000000,,2013-02-16 02:01:00,
2013-02-15 16:11:00,57.0,56.0,-100.00,East,95,2.0,13.0,96,0.00,,,0.00,149.000000,,2013-02-16 02:11:00,
2013-02-15 16:21:00,57.0,56.0,-100.00,East,95,2.0,13.0,96,0.00,,,0.00,149.000000,,2013-02-16 02:21:00,
2013-02-15 16:42:00,56.0,55.0,-100.00,SE,135,2.0,10.0,96,0.00,,,-99.99,114.000000,,2013-02-16 02:42:00,
2013-02-15 16:52:00,56.0,55.0,-100.00,SE,135,2.0,10.0,96,0.00,,,-99.99,114.000000,,2013-02-16 02:52:00,
2013-02-15 17:01:00,56.0,55.0,-100.00,SE,135,2.0,10.0,96,0.00,,,-99.99,114.000000,,2013-02-16 03:01:00,
2013-02-15 17:11:00,56.0,55.0,-100.00,SE,135,2.0,10.0,96,0.00,,,-99.99,114.000000,,2013-02-16 03:11:00,
2013-02-15 17:21:00,56.0,55.0,-100.00,SE,135,2.0,10.0,96,0.00,,,-99.99,114.000000,,2013-02-16 03:21:00,
2013-02-15 17:42:00,56.0,55.0,-100.00,WNW,302,2.0,12.0,97,0.00,,,0.00,75.000000,,2013-02-16 03:42:00,
2013-02-15 17:52:00,56.0,55.0,-100.00,WNW,302,2.0,12.0,97,0.00,,,0.00,75.000000,,2013-02-16 03:52:00,
2013-02-15 18:01:00,56.0,55.0,-100.00,WNW,302,2.0,12.0,97,0.00,,,0.00,75.000000,,2013-02-16 04:01:00,
2013-02-15 18:11:00,56.0,55.0,-100.00,WNW,302,2.0,12.0,97,0.00,,,0.00,75.000000,,2013-02-16 04:11:00,
2013-02-15 18:21:00,56.0,55.0,-100.00,WNW,302,2.0,12.0,97,0.00,,,0.00,75.000000,,2013-02-16 04:21:00,
2013-02-15 18:42:00,56.0,55.0,-100.00,North,351,2.0,12.0,97,0.00,,,0.00,41.000000,,2013-02-16 04:42:00,
2013-02-15 18:52:00,56.0,55.0,-100.00,North,351,2.0,12.0,97,0.00,,,0.00,41.000000,,2013-02-16 04:52:00,
2013-02-15 19:01:00,56.0,55.0,-100.00,North,351,2.0,12.0,97,0.00,,,0.00,41.000000,,2013-02-16 05:01:00,
2013-02-15 19:11:00,56.0,55.0,-100.00,North,351,2.0,12.0,97,0.00,,,0.00,41.000000,,2013-02-16 05:11:00,
2013-02-15 19:21:00,56.0,55.0,-100.00,North,351,2.0,12.0,97,0.00,,,0.00,41.000000,,2013-02-16 05:21:00,
2013-02-15 19:42:00,55.0,54.0,-100.00,SE,134,3.0,12.0,97,0.00,,,0.00,4.000000,,2013-02-16 05:42:00,
2013-02-15 19:52:00,55.0,54.0,-100.00,SE,134,3.0,12.0,97,0.00,,,0.00,4.000000,,2013-02-16 05:52:00,
2013-02-15 20:01:00,55.0,54.0,-100.00,SE,134,3.0,12.0,97,0.00,,,0.00,4.000000,,2013-02-16 06:01:00,
2013-02-15 20:11:00,55.0,54.0,-100.00,SE,134,3.0,12.0,97,0.00,,,0.00,4.000000,,2013-02-16 06:11:00,
2013-02-15 20:21:00,55.0,54.0,-100.00,SE,134,3.0,12.0,97,0.00,,,0.00,4.000000,,2013-02-16 06:21:00,
2013-02-15 20:42:00,54.0,53.0,-100.00,SE,125,3.0,13.0,95,0.00,,,0.00,0.000000,,2013-02-16 06:42:00,
2013-02-15 20:52:00,54.0,53.0,-100.00,SE,125,3.0,13.0,95,0.00,,,0.00,0.000000,,2013-02-16 06:52:00,
2013-02-15 21:02:00,54.0,53.0,-100.00,SE,125,3.0,13.0,95,0.00,,,0.00,0.000000,,2013-02-16 07:02:00,
2013-02-15 21:11:00,54.0,53.0,-100.00,SE,125,3.0,13.0,95,0.00,,,0.00,0.000000,,2013-02-16 07:11:00,
2013-02-15 21:21:00,54.0,53.0,-100.00,SE,125,3.0,13.0,95,0.00,,,0.00,0.000000,,2013-02-16 07:21:00,
2013-02-15 21:42:00,54.0,52.0,-100.00,SE,133,3.0,13.0,94,0.00,,,0.00,0.000000,,2013-02-16 07:42:00,
2013-02-15 21:53:00,54.0,52.0,-100.00,SE,133,3.0,13.0,94,0.00,,,0.00,0.000000,,2013-02-16 07:53:00,
2013-02-15 22:01:00,54.0,52.0,-100.00,SE,133,3.0,13.0,94,0.00,,,0.00,0.000000,,2013-02-16 08:01:00,
2013-02-15 22:11:00,54.0,52.0,-100.00,SE,133,3.0,13.0,94,0.00,,,0.00,0.000000,,2013-02-16 08:11:00,
2013-02-15 22:21:00,54.0,52.0,-100.00,SE,133,3.0,13.0,94,0.00,,,0.00,0.000000,,2013-02-16 08:21:00,
2013-02-15 22:42:00,54.0,53.0,-100.00,SE,128,3.0,19.0,95,0.00,,,0.00,0.000000,,2013-02-16 08:42:00,
2013-02-15 22:52:00,54.0,53.0,-100.00,SE,128,3.0,19.0,95,0.00,,,0.00,0.000000,,2013-02-16 08:52:00,
2013-02-15 23:01:00,54.0,53.0,-100.00,SE,128,3.0,19.0,95,0.00,,,0.00,0.000000,,2013-02-16 09:01:00,
2013-02-15 23:11:00,54.0,53.0,-100.00,SE,128,3.0,19.0,95,0.00,,,0.00,0.000000,,2013-02-16 09:11:00,
2013-02-15 23:21:00,54.0,53.0,-100.00,SE,128,3.0,19.0,95,0.00,,,0.00,0.000000,,2013-02-16 09:21:00,
2013-02-15 23:42:00,55.0,54.0,-100.00,ESE,111,3.0,11.0,96,0.00,,,0.00,0.000000,,2013-02-16 09:42:00,
2013-02-15 23:52:00,55.0,54.0,-100.00,ESE,111,3.0,11.0,96,0.00,,,0.00,0.000000,,2013-02-16 09:52:00,